When you browse on this site, cookies collect data to enhance your experience and personalize the content and advertising you see.
Visit our Privacy Policy to learn more. By continuing to use the site, you agree to this use of cookies and data.

Previsão horária em Pavlo-Fedorovka

Hoje, 11 Agosto, Terça-feira

Tempo Temperatura Precipitação Vento Pressão Humidade
00:00 +23°C° 0.1 mm 2 m/s 745 mmHg 95%
01:00 +23°C° 0.2 mm 1 m/s 745 mmHg 95%
02:00 +23°C° 0.2 mm 1 m/s 745 mmHg 95%
03:00 +22°C° 0.2 mm 1 m/s 745 mmHg 95%
04:00 +23°C° 0.1 mm 1 m/s 745 mmHg 95%
05:00 +23°C° 0.1 mm 2 m/s 745 mmHg 96%
06:00 +23°C° 0.1 mm 2 m/s 745 mmHg 96%
07:00 +24°C° 0.1 mm 2 m/s 745 mmHg 94%
08:00 +25°C° 0.1 mm 2 m/s 745 mmHg 92%
09:00 +26°C° 0.1 mm 2 m/s 744 mmHg 89%
10:00 +27°C° 0 mm 3 m/s 744 mmHg 84%
11:00 +28°C° 0 mm 3 m/s 744 mmHg 80%
12:00 +29°C° 0 mm 4 m/s 744 mmHg 75%
13:00 +29°C° 1 mm 4 m/s 744 mmHg 79%
14:00 +28°C° 1 mm 4 m/s 744 mmHg 82%
15:00 +27°C° 1 mm 3 m/s 744 mmHg 86%
16:00 +27°C° 0.5 mm 3 m/s 744 mmHg 87%
17:00 +27°C° 0.5 mm 3 m/s 744 mmHg 88%
18:00 +27°C° 0.5 mm 3 m/s 744 mmHg 89%
19:00 +26°C° 0.3 mm 3 m/s 745 mmHg 90%
20:00 +25°C° 0.3 mm 3 m/s 745 mmHg 91%
21:00 +24°C° 0.3 mm 3 m/s 745 mmHg 93%
22:00 +22°C° 0.1 mm 3 m/s 746 mmHg 93%
23:00 +22°C° 0.1 mm 3 m/s 746 mmHg 94%

Amanhã, 12 Agosto, Quarta-feira

Tempo Temperatura Precipitação Vento Pressão Humidade
00:00 +21°C° 0.1 mm 4 m/s 746 mmHg 94%
01:00 +21°C° 0 mm 4 m/s 746 mmHg 95%
02:00 +21°C° 0 mm 4 m/s 747 mmHg 95%
03:00 +20°C° 0 mm 3 m/s 747 mmHg 95%
04:00 +20°C° 0 mm 3 m/s 747 mmHg 95%
05:00 +20°C° 0 mm 3 m/s 747 mmHg 95%
06:00 +20°C° 0 mm 3 m/s 747 mmHg 95%
07:00 +22°C° 0 mm 4 m/s 747 mmHg 90%
08:00 +23°C° 0 mm 4 m/s 747 mmHg 84%
09:00 +26°C° 0 mm 5 m/s 747 mmHg 78%
10:00 +27°C° 0 mm 5 m/s 747 mmHg 74%
11:00 +28°C° 0 mm 5 m/s 747 mmHg 70%
12:00 +30°C° 0 mm 6 m/s 746 mmHg 66%
13:00 +30°C° 0.1 mm 5 m/s 746 mmHg 65%
14:00 +30°C° 0.1 mm 5 m/s 746 mmHg 64%
15:00 +30°C° 0.1 mm 5 m/s 746 mmHg 63%
16:00 +29°C° 0.1 mm 4 m/s 746 mmHg 67%
17:00 +27°C° 0.1 mm 4 m/s 746 mmHg 71%
18:00 +26°C° 0.1 mm 4 m/s 746 mmHg 75%
19:00 +25°C° 0 mm 3 m/s 747 mmHg 78%
20:00 +22°C° 0 mm 3 m/s 748 mmHg 81%
21:00 +21°C° 0 mm 2 m/s 748 mmHg 84%
22:00 +20°C° 0 mm 2 m/s 748 mmHg 86%
23:00 +21°C° 0 mm 1 m/s 749 mmHg 88%

Depois de amanhã, 13 Agosto, Quinta-feira

Tempo Temperatura Precipitação Vento Pressão Humidade
00:00 +20°C° 0 mm 1 m/s 749 mmHg 90%
01:00 +20°C° 0 mm 1 m/s 749 mmHg 91%
02:00 +19°C° 0 mm 1 m/s 749 mmHg 92%
03:00 +19°C° 0 mm 1 m/s 749 mmHg 93%
04:00 +19°C° 0 mm 1 m/s 749 mmHg 94%
05:00 +19°C° 0 mm 1 m/s 749 mmHg 94%
06:00 +19°C° 0 mm 1 m/s 749 mmHg 94%
07:00 +21°C° 0 mm 1 m/s 749 mmHg 89%
08:00 +22°C° 0 mm 1 m/s 749 mmHg 84%
09:00 +24°C° 0 mm 1 m/s 750 mmHg 79%
10:00 +25°C° 0 mm 1 m/s 749 mmHg 77%
11:00 +25°C° 0 mm 1 m/s 749 mmHg 75%
12:00 +26°C° 0 mm 2 m/s 749 mmHg 73%
13:00 +27°C° 0 mm 1 m/s 749 mmHg 72%
14:00 +27°C° 0 mm 1 m/s 748 mmHg 70%
15:00 +28°C° 0 mm 1 m/s 748 mmHg 69%
16:00 +27°C° 0 mm 1 m/s 748 mmHg 74%
17:00 +27°C° 0 mm 1 m/s 748 mmHg 79%
18:00 +26°C° 0 mm 1 m/s 748 mmHg 83%
19:00 +25°C° 0 mm 2 m/s 748 mmHg 85%
20:00 +24°C° 0 mm 2 m/s 748 mmHg 87%
21:00 +23°C° 0 mm 2 m/s 748 mmHg 89%
22:00 +22°C° 0 mm 3 m/s 747 mmHg 87%
23:00 +22°C° 0 mm 3 m/s 747 mmHg 84%

14 Agosto, Sexta-feira

Tempo Temperatura Precipitação Vento Pressão Humidade
00:00 +22°C° 0 mm 3 m/s 747 mmHg 82%
01:00 +22°C° 0 mm 4 m/s 746 mmHg 80%
02:00 +21°C° 0 mm 4 m/s 746 mmHg 78%
03:00 +21°C° 0 mm 4 m/s 746 mmHg 76%
04:00 +20°C° 0.2 mm 3 m/s 746 mmHg 80%
05:00 +20°C° 0.2 mm 3 m/s 746 mmHg 83%
06:00 +19°C° 0.2 mm 3 m/s 746 mmHg 87%
07:00 +19°C° 1.5 mm 4 m/s 746 mmHg 90%
08:00 +17°C° 1.5 mm 5 m/s 745 mmHg 93%
09:00 +17°C° 1.5 mm 6 m/s 745 mmHg 95%
10:00 +17°C° 0.3 mm 6 m/s 745 mmHg 94%
11:00 +19°C° 0.3 mm 6 m/s 744 mmHg 93%
12:00 +19°C° 0.3 mm 6 m/s 744 mmHg 92%
13:00 +20°C° 0 mm 6 m/s 743 mmHg 89%
14:00 +20°C° 0 mm 6 m/s 743 mmHg 85%
15:00 +21°C° 0 mm 5 m/s 743 mmHg 81%
16:00 +22°C° 0 mm 5 m/s 743 mmHg 81%
17:00 +22°C° 0 mm 5 m/s 742 mmHg 81%
18:00 +22°C° 0 mm 4 m/s 742 mmHg 81%
19:00 +21°C° 0 mm 5 m/s 742 mmHg 81%
20:00 +20°C° 0 mm 5 m/s 743 mmHg 81%
21:00 +19°C° 0 mm 5 m/s 743 mmHg 81%
22:00 +19°C° 0 mm 5 m/s 743 mmHg 84%
23:00 +19°C° 0 mm 4 m/s 743 mmHg 86%

15 Agosto, Sábado

Tempo Temperatura Precipitação Vento Pressão Humidade
00:00 +18°C° 0 mm 4 m/s 743 mmHg 88%
01:00 +18°C° 0.1 mm 4 m/s 742 mmHg 89%
02:00 +18°C° 0.1 mm 4 m/s 742 mmHg 90%
03:00 +18°C° 0.1 mm 4 m/s 742 mmHg 91%
04:00 +18°C° 0.2 mm 4 m/s 742 mmHg 92%
05:00 +18°C° 0.2 mm 4 m/s 742 mmHg 93%
06:00 +18°C° 0.2 mm 4 m/s 742 mmHg 95%
07:00 +19°C° 0.3 mm 4 m/s 742 mmHg 93%
08:00 +21°C° 0.3 mm 4 m/s 742 mmHg 92%
09:00 +22°C° 0.3 mm 5 m/s 742 mmHg 91%
10:00 +23°C° 0.5 mm 5 m/s 742 mmHg 88%
11:00 +26°C° 0.5 mm 6 m/s 741 mmHg 85%
12:00 +27°C° 0.5 mm 6 m/s 741 mmHg 83%
13:00 +27°C° 1.5 mm 6 m/s 741 mmHg 84%
14:00 +27°C° 1.5 mm 7 m/s 741 mmHg 85%
15:00 +27°C° 1.5 mm 7 m/s 741 mmHg 87%
16:00 +26°C° 1.3 mm 6 m/s 741 mmHg 88%
17:00 +24°C° 1.3 mm 6 m/s 741 mmHg 90%
18:00 +25°C° 1.3 mm 5 m/s 742 mmHg 91%
19:00 +23°C° 0.4 mm 4 m/s 743 mmHg 92%
20:00 +21°C° 0.4 mm 3 m/s 744 mmHg 93%
21:00 +20°C° 0.4 mm 2 m/s 744 mmHg 94%
22:00 +20°C° 0 mm 2 m/s 745 mmHg 94%
23:00 +19°C° 0 mm 2 m/s 745 mmHg 94%

16 Agosto, Domingo

Tempo Temperatura Precipitação Vento Pressão Humidade
00:00 +18°C° 0 mm 2 m/s 745 mmHg 94%
01:00 +18°C° 0 mm 2 m/s 745 mmHg 94%
02:00 +18°C° 0 mm 2 m/s 745 mmHg 94%
03:00 +18°C° 0 mm 2 m/s 745 mmHg 95%
04:00 +18°C° 0 mm 2 m/s 746 mmHg 95%
05:00 +18°C° 0 mm 2 m/s 746 mmHg 96%
06:00 +18°C° 0 mm 2 m/s 746 mmHg 97%
07:00 +20°C° 0.1 mm 2 m/s 747 mmHg 93%
08:00 +21°C° 0.1 mm 3 m/s 747 mmHg 89%
09:00 +24°C° 0.1 mm 3 m/s 747 mmHg 86%
10:00 +25°C° 0.4 mm 3 m/s 747 mmHg 83%
11:00 +25°C° 0.4 mm 3 m/s 747 mmHg 80%
12:00 +26°C° 0.4 mm 4 m/s 747 mmHg 78%
13:00 +26°C° 0.1 mm 3 m/s 747 mmHg 75%
14:00 +27°C° 0.1 mm 3 m/s 747 mmHg 72%
15:00 +27°C° 0.1 mm 3 m/s 747 mmHg 69%
16:00 +27°C° 0 mm 3 m/s 747 mmHg 73%
17:00 +26°C° 0 mm 2 m/s 747 mmHg 77%
18:00 +25°C° 0 mm 2 m/s 748 mmHg 81%
19:00 +24°C° 0 mm 1 m/s 748 mmHg 83%
20:00 +22°C° 0 mm 1 m/s 748 mmHg 86%
21:00 +19°C° 0 mm 0 m/s 749 mmHg 88%
22:00 +20°C° 0 mm 1 m/s 749 mmHg 88%
23:00 +20°C° 0 mm 1 m/s 749 mmHg 88%
Mostrar mais